segment_id,date_local,uptime,ped_lft,ped_rgt,ped_total,bike_lft,bike_rgt,bike_total,car_lft,car_rgt,car_total,heavy_lft,heavy_rgt,heavy_total,v85,car_speed0,car_speed10,car_speed20,car_speed30,car_speed40,car_speed50,car_speed60,car_speed70
100024661,2016-05-01 00:00,1.0,,,,91,125,216,,,,,,,
100024661,2016-05-01 01:00,1.0,,,,124,122,246,,,,,,,
100024661,2016-05-01 02:00,1.0,,,,71,55,126,,,,,,,
100024661,2016-05-01 03:00,1.0,,,,48,34,82,,,,,,,
100024661,2016-05-01 04:00,1.0,,,,29,13,42,,,,,,,
100024661,2016-05-01 05:00,1.0,,,,21,16,37,,,,,,,
100024661,2016-05-01 06:00,1.0,,,,13,6,19,,,,,,,
100024661,2016-05-01 07:00,1.0,,,,21,16,37,,,,,,,
100024661,2016-05-01 08:00,1.0,,,,36,28,64,,,,,,,
100024661,2016-05-01 09:00,1.0,,,,63,44,107,,,,,,,
100024661,2016-05-01 10:00,1.0,,,,105,91,196,,,,,,,
100024661,2016-05-01 11:00,1.0,,,,106,173,279,,,,,,,
100024661,2016-05-01 12:00,1.0,,,,120,223,343,,,,,,,
100024661,2016-05-01 13:00,1.0,,,,169,315,484,,,,,,,
100024661,2016-05-01 14:00,1.0,,,,230,468,698,,,,,,,
100024661,2016-05-01 15:00,1.0,,,,211,412,623,,,,,,,
100024661,2016-05-01 16:00,1.0,,,,261,371,632,,,,,,,
100024661,2016-05-01 17:00,1.0,,,,320,368,688,,,,,,,
100024661,2016-05-01 18:00,1.0,,,,292,242,534,,,,,,,
100024661,2016-05-01 19:00,1.0,,,,334,196,530,,,,,,,
100024661,2016-05-01 20:00,1.0,,,,295,112,407,,,,,,,
100024661,2016-05-01 21:00,1.0,,,,273,92,365,,,,,,,
100024661,2016-05-01 22:00,1.0,,,,193,75,268,,,,,,,
100024661,2016-05-01 23:00,1.0,,,,140,43,183,,,,,,,
100024661,2016-05-02 00:00,1.0,,,,84,36,120,,,,,,,
100024661,2016-05-02 01:00,1.0,,,,39,18,57,,,,,,,
100024661,2016-05-02 02:00,1.0,,,,21,11,32,,,,,,,
100024661,2016-05-02 03:00,1.0,,,,16,7,23,,,,,,,
100024661,2016-05-02 04:00,1.0,,,,15,7,22,,,,,,,
100024661,2016-05-02 05:00,1.0,,,,25,35,60,,,,,,,
100024661,2016-05-02 06:00,1.0,,,,50,95,145,,,,,,,
100024661,2016-05-02 07:00,1.0,,,,198,299,497,,,,,,,
100024661,2016-05-02 08:00,1.0,,,,428,752,1180,,,,,,,
100024661,2016-05-02 09:00,1.0,,,,492,635,1127,,,,,,,
100024661,2016-05-02 10:00,1.0,,,,223,256,479,,,,,,,
100024661,2016-05-02 11:00,1.0,,,,216,198,414,,,,,,,
100024661,2016-05-02 12:00,1.0,,,,237,214,451,,,,,,,
100024661,2016-05-02 13:00,1.0,,,,248,227,475,,,,,,,
100024661,2016-05-02 14:00,1.0,,,,276,258,534,,,,,,,
100024661,2016-05-02 15:00,1.0,,,,379,322,701,,,,,,,
100024661,2016-05-02 16:00,1.0,,,,445,352,797,,,,,,,
100024661,2016-05-02 17:00,1.0,,,,572,421,993,,,,,,,
100024661,2016-05-02 18:00,1.0,,,,760,593,1353,,,,,,,
100024661,2016-05-02 19:00,1.0,,,,475,463,938,,,,,,,
100024661,2016-05-02 20:00,1.0,,,,270,275,545,,,,,,,
100024661,2016-05-02 21:00,1.0,,,,195,189,384,,,,,,,
100024661,2016-05-02 22:00,1.0,,,,159,133,292,,,,,,,
100024661,2016-05-02 23:00,1.0,,,,94,88,182,,,,,,,
100024661,2016-05-03 00:00,1.0,,,,46,59,105,,,,,,,
100024661,2016-05-03 01:00,1.0,,,,16,22,38,,,,,,,
100024661,2016-05-03 02:00,1.0,,,,11,7,18,,,,,,,
100024661,2016-05-03 03:00,1.0,,,,8,6,14,,,,,,,
100024661,2016-05-03 04:00,1.0,,,,8,7,15,,,,,,,
100024661,2016-05-03 05:00,1.0,,,,19,47,66,,,,,,,
100024661,2016-05-03 06:00,1.0,,,,44,113,157,,,,,,,
100024661,2016-05-03 07:00,1.0,,,,212,303,515,,,,,,,
100024661,2016-05-03 08:00,1.0,,,,439,762,1201,,,,,,,
100024661,2016-05-03 09:00,1.0,,,,509,643,1152,,,,,,,
100024661,2016-05-03 10:00,1.0,,,,251,272,523,,,,,,,
100024661,2016-05-03 11:00,1.0,,,,216,194,410,,,,,,,
100024661,2016-05-03 12:00,1.0,,,,226,252,478,,,,,,,
100024661,2016-05-03 13:00,1.0,,,,207,232,439,,,,,,,
100024661,2016-05-03 14:00,1.0,,,,308,262,570,,,,,,,
100024661,2016-05-03 15:00,1.0,,,,342,307,649,,,,,,,
100024661,2016-05-03 16:00,1.0,,,,471,344,815,,,,,,,
100024661,2016-05-03 17:00,1.0,,,,526,377,903,,,,,,,
100024661,2016-05-03 18:00,1.0,,,,691,573,1264,,,,,,,
100024661,2016-05-03 19:00,1.0,,,,444,444,888,,,,,,,
100024661,2016-05-03 20:00,1.0,,,,280,263,543,,,,,,,
100024661,2016-05-03 21:00,1.0,,,,139,165,304,,,,,,,
100024661,2016-05-03 22:00,1.0,,,,144,133,277,,,,,,,
100024661,2016-05-03 23:00,1.0,,,,119,104,223,,,,,,,
100024661,2016-05-04 00:00,1.0,,,,52,42,94,,,,,,,
100024661,2016-05-04 01:00,1.0,,,,27,23,50,,,,,,,
100024661,2016-05-04 02:00,1.0,,,,11,6,17,,,,,,,
100024661,2016-05-04 03:00,1.0,,,,9,5,14,,,,,,,
100024661,2016-05-04 04:00,1.0,,,,7,4,11,,,,,,,
100024661,2016-05-04 05:00,1.0,,,,16,30,46,,,,,,,
100024661,2016-05-04 06:00,1.0,,,,24,58,82,,,,,,,
100024661,2016-05-04 07:00,1.0,,,,85,135,220,,,,,,,
100024661,2016-05-04 08:00,1.0,,,,261,387,648,,,,,,,
100024661,2016-05-04 09:00,1.0,,,,370,395,765,,,,,,,
100024661,2016-05-04 10:00,1.0,,,,189,197,386,,,,,,,
100024661,2016-05-04 11:00,1.0,,,,139,136,275,,,,,,,
100024661,2016-05-04 12:00,1.0,,,,174,169,343,,,,,,,
100024661,2016-05-04 13:00,1.0,,,,176,159,335,,,,,,,
100024661,2016-05-04 14:00,1.0,,,,228,210,438,,,,,,,
100024661,2016-05-04 15:00,1.0,,,,284,227,511,,,,,,,
100024661,2016-05-04 16:00,1.0,,,,301,274,575,,,,,,,
100024661,2016-05-04 17:00,1.0,,,,387,301,688,,,,,,,
100024661,2016-05-04 18:00,1.0,,,,463,408,871,,,,,,,
100024661,2016-05-04 19:00,1.0,,,,310,342,652,,,,,,,
100024661,2016-05-04 20:00,1.0,,,,192,263,455,,,,,,,
100024661,2016-05-04 21:00,1.0,,,,157,187,344,,,,,,,
100024661,2016-05-04 22:00,1.0,,,,125,120,245,,,,,,,
100024661,2016-05-04 23:00,1.0,,,,120,98,218,,,,,,,
100024661,2016-05-05 00:00,1.0,,,,92,82,174,,,,,,,
100024661,2016-05-05 01:00,1.0,,,,47,48,95,,,,,,,
100024661,2016-05-05 02:00,1.0,,,,33,40,73,,,,,,,
100024661,2016-05-05 03:00,1.0,,,,14,22,36,,,,,,,
100024661,2016-05-05 04:00,1.0,,,,9,16,25,,,,,,,
100024661,2016-05-05 05:00,1.0,,,,14,6,20,,,,,,,
100024661,2016-05-05 06:00,1.0,,,,12,17,29,,,,,,,
100024661,2016-05-05 07:00,1.0,,,,28,18,46,,,,,,,
100024661,2016-05-05 08:00,1.0,,,,39,40,79,,,,,,,
100024661,2016-05-05 09:00,1.0,,,,96,88,184,,,,,,,
100024661,2016-05-05 10:00,1.0,,,,127,97,224,,,,,,,
100024661,2016-05-05 11:00,1.0,,,,160,161,321,,,,,,,
100024661,2016-05-05 12:00,1.0,,,,182,178,360,,,,,,,
100024661,2016-05-05 13:00,1.0,,,,168,222,390,,,,,,,
100024661,2016-05-05 14:00,1.0,,,,224,266,490,,,,,,,
100024661,2016-05-05 15:00,1.0,,,,228,249,477,,,,,,,
100024661,2016-05-05 16:00,1.0,,,,222,248,470,,,,,,,
100024661,2016-05-05 17:00,1.0,,,,230,248,478,,,,,,,
100024661,2016-05-05 18:00,1.0,,,,281,234,515,,,,,,,
100024661,2016-05-05 19:00,1.0,,,,294,214,508,,,,,,,
100024661,2016-05-05 20:00,1.0,,,,233,204,437,,,,,,,
100024661,2016-05-05 21:00,1.0,,,,161,157,318,,,,,,,
100024661,2016-05-05 22:00,1.0,,,,153,135,288,,,,,,,
100024661,2016-05-05 23:00,1.0,,,,121,118,239,,,,,,,
100024661,2016-05-06 00:00,1.0,,,,78,79,157,,,,,,,
100024661,2016-05-06 01:00,1.0,,,,53,54,107,,,,,,,
100024661,2016-05-06 02:00,1.0,,,,34,22,56,,,,,,,
100024661,2016-05-06 03:00,1.0,,,,16,7,23,,,,,,,
100024661,2016-05-06 04:00,1.0,,,,19,7,26,,,,,,,
100024661,2016-05-06 05:00,1.0,,,,17,18,35,,,,,,,
100024661,2016-05-06 06:00,1.0,,,,32,59,91,,,,,,,
100024661,2016-05-06 07:00,1.0,,,,98,112,210,,,,,,,
100024661,2016-05-06 08:00,1.0,,,,224,338,562,,,,,,,
100024661,2016-05-06 09:00,1.0,,,,311,360,671,,,,,,,
100024661,2016-05-06 10:00,1.0,,,,239,226,465,,,,,,,
100024661,2016-05-06 11:00,1.0,,,,245,210,455,,,,,,,
100024661,2016-05-06 12:00,1.0,,,,289,218,507,,,,,,,
100024661,2016-05-06 13:00,1.0,,,,278,273,551,,,,,,,
100024661,2016-05-06 14:00,1.0,,,,322,335,657,,,,,,,
100024661,2016-05-06 15:00,1.0,,,,342,347,689,,,,,,,
100024661,2016-05-06 16:00,1.0,,,,395,433,828,,,,,,,
100024661,2016-05-06 17:00,1.0,,,,433,417,850,,,,,,,
100024661,2016-05-06 18:00,1.0,,,,478,448,926,,,,,,,
100024661,2016-05-06 19:00,1.0,,,,346,423,769,,,,,,,
100024661,2016-05-06 20:00,1.0,,,,254,338,592,,,,,,,
100024661,2016-05-06 21:00,1.0,,,,193,225,418,,,,,,,
100024661,2016-05-06 22:00,1.0,,,,158,140,298,,,,,,,
100024661,2016-05-06 23:00,1.0,,,,166,131,297,,,,,,,
100024661,2016-05-07 00:00,1.0,,,,117,116,233,,,,,,,
100024661,2016-05-07 01:00,1.0,,,,94,78,172,,,,,,,
100024661,2016-05-07 02:00,1.0,,,,64,44,108,,,,,,,
100024661,2016-05-07 03:00,1.0,,,,46,28,74,,,,,,,
100024661,2016-05-07 04:00,1.0,,,,26,16,42,,,,,,,
100024661,2016-05-07 05:00,1.0,,,,30,16,46,,,,,,,
100024661,2016-05-07 06:00,1.0,,,,21,15,36,,,,,,,
100024661,2016-05-07 07:00,1.0,,,,30,24,54,,,,,,,
100024661,2016-05-07 08:00,1.0,,,,69,41,110,,,,,,,
100024661,2016-05-07 09:00,1.0,,,,128,105,233,,,,,,,
100024661,2016-05-07 10:00,1.0,,,,168,138,306,,,,,,,
100024661,2016-05-07 11:00,1.0,,,,212,215,427,,,,,,,
100024661,2016-05-07 12:00,1.0,,,,270,217,487,,,,,,,
100024661,2016-05-07 13:00,1.0,,,,443,293,736,,,,,,,
100024661,2016-05-07 14:00,1.0,,,,273,336,609,,,,,,,
100024661,2016-05-07 15:00,1.0,,,,272,405,677,,,,,,,
100024661,2016-05-07 16:00,1.0,,,,306,366,672,,,,,,,
100024661,2016-05-07 17:00,1.0,,,,323,390,713,,,,,,,
100024661,2016-05-07 18:00,1.0,,,,298,388,686,,,,,,,
100024661,2016-05-07 19:00,1.0,,,,285,326,611,,,,,,,
100024661,2016-05-07 20:00,1.0,,,,220,263,483,,,,,,,
100024661,2016-05-07 21:00,1.0,,,,194,170,364,,,,,,,
100024661,2016-05-07 22:00,1.0,,,,142,141,283,,,,,,,
100024661,2016-05-07 23:00,1.0,,,,120,131,251,,,,,,,
100024661,2016-05-08 00:00,1.0,,,,159,120,279,,,,,,,
100024661,2016-05-08 01:00,1.0,,,,97,99,196,,,,,,,
100024661,2016-05-08 02:00,1.0,,,,63,46,109,,,,,,,
100024661,2016-05-08 03:00,1.0,,,,42,34,76,,,,,,,
100024661,2016-05-08 04:00,1.0,,,,28,21,49,,,,,,,
100024661,2016-05-08 05:00,1.0,,,,21,15,36,,,,,,,
100024661,2016-05-08 06:00,1.0,,,,20,28,48,,,,,,,
100024661,2016-05-08 07:00,1.0,,,,31,23,54,,,,,,,
100024661,2016-05-08 08:00,1.0,,,,39,26,65,,,,,,,
100024661,2016-05-08 09:00,1.0,,,,104,68,172,,,,,,,
100024661,2016-05-08 10:00,1.0,,,,120,111,231,,,,,,,
100024661,2016-05-08 11:00,1.0,,,,115,166,281,,,,,,,
100024661,2016-05-08 12:00,1.0,,,,143,157,300,,,,,,,
100024661,2016-05-08 13:00,1.0,,,,200,228,428,,,,,,,
100024661,2016-05-08 14:00,1.0,,,,253,259,512,,,,,,,
100024661,2016-05-08 15:00,1.0,,,,215,227,442,,,,,,,
100024661,2016-05-08 16:00,1.0,,,,202,189,391,,,,,,,
100024661,2016-05-08 17:00,1.0,,,,229,244,473,,,,,,,
100024661,2016-05-08 18:00,1.0,,,,234,208,442,,,,,,,
100024661,2016-05-08 19:00,1.0,,,,213,185,398,,,,,,,
100024661,2016-05-08 20:00,1.0,,,,168,163,331,,,,,,,
100024661,2016-05-08 21:00,1.0,,,,141,122,263,,,,,,,
100024661,2016-05-08 22:00,1.0,,,,99,134,233,,,,,,,
100024661,2016-05-08 23:00,1.0,,,,81,88,169,,,,,,,
100024661,2016-05-09 00:00,1.0,,,,30,45,75,,,,,,,
100024661,2016-05-09 01:00,1.0,,,,19,29,48,,,,,,,
100024661,2016-05-09 02:00,1.0,,,,9,5,14,,,,,,,
100024661,2016-05-09 03:00,1.0,,,,6,12,18,,,,,,,
100024661,2016-05-09 04:00,1.0,,,,4,7,11,,,,,,,
100024661,2016-05-09 05:00,1.0,,,,20,49,69,,,,,,,
100024661,2016-05-09 06:00,1.0,,,,64,131,195,,,,,,,
100024661,2016-05-09 07:00,1.0,,,,235,355,590,,,,,,,
100024661,2016-05-09 08:00,1.0,,,,539,892,1431,,,,,,,
100024661,2016-05-09 09:00,1.0,,,,527,738,1265,,,,,,,
100024661,2016-05-09 10:00,1.0,,,,270,267,537,,,,,,,
100024661,2016-05-09 11:00,1.0,,,,222,204,426,,,,,,,
100024661,2016-05-09 12:00,1.0,,,,238,238,476,,,,,,,
100024661,2016-05-09 13:00,1.0,,,,265,267,532,,,,,,,
100024661,2016-05-09 14:00,1.0,,,,364,271,635,,,,,,,
100024661,2016-05-09 15:00,1.0,,,,407,326,733,,,,,,,
100024661,2016-05-09 16:00,1.0,,,,521,400,921,,,,,,,
100024661,2016-05-09 17:00,1.0,,,,649,477,1126,,,,,,,
100024661,2016-05-09 18:00,1.0,,,,824,662,1486,,,,,,,
100024661,2016-05-09 19:00,1.0,,,,510,494,1004,,,,,,,
100024661,2016-05-09 20:00,1.0,,,,298,333,631,,,,,,,
100024661,2016-05-09 21:00,1.0,,,,216,224,440,,,,,,,
100024661,2016-05-09 22:00,1.0,,,,176,182,358,,,,,,,
100024661,2016-05-09 23:00,1.0,,,,107,112,219,,,,,,,
100024661,2016-05-10 00:00,1.0,,,,69,65,134,,,,,,,
100024661,2016-05-10 01:00,1.0,,,,30,44,74,,,,,,,
100024661,2016-05-10 02:00,1.0,,,,14,18,32,,,,,,,
100024661,2016-05-10 03:00,1.0,,,,7,12,19,,,,,,,
100024661,2016-05-10 04:00,1.0,,,,11,8,19,,,,,,,
100024661,2016-05-10 05:00,1.0,,,,16,44,60,,,,,,,
100024661,2016-05-10 06:00,1.0,,,,75,133,208,,,,,,,
100024661,2016-05-10 07:00,1.0,,,,233,372,605,,,,,,,
100024661,2016-05-10 08:00,1.0,,,,570,970,1540,,,,,,,
100024661,2016-05-10 09:00,1.0,,,,605,823,1428,,,,,,,
100024661,2016-05-10 10:00,1.0,,,,308,280,588,,,,,,,
100024661,2016-05-10 11:00,1.0,,,,243,216,459,,,,,,,
100024661,2016-05-10 12:00,1.0,,,,250,281,531,,,,,,,
100024661,2016-05-10 13:00,1.0,,,,288,262,550,,,,,,,
100024661,2016-05-10 14:00,1.0,,,,363,338,701,,,,,,,
100024661,2016-05-10 15:00,1.0,,,,470,378,848,,,,,,,
100024661,2016-05-10 16:00,1.0,,,,583,435,1018,,,,,,,
100024661,2016-05-10 17:00,1.0,,,,710,578,1288,,,,,,,
100024661,2016-05-10 18:00,1.0,,,,871,693,1564,,,,,,,
100024661,2016-05-10 19:00,1.0,,,,548,573,1121,,,,,,,
100024661,2016-05-10 20:00,1.0,,,,379,392,771,,,,,,,
100024661,2016-05-10 21:00,1.0,,,,238,225,463,,,,,,,
100024661,2016-05-10 22:00,1.0,,,,234,220,454,,,,,,,
100024661,2016-05-10 23:00,1.0,,,,114,158,272,,,,,,,
100024661,2016-05-11 00:00,1.0,,,,69,68,137,,,,,,,
100024661,2016-05-11 01:00,1.0,,,,30,42,72,,,,,,,
100024661,2016-05-11 02:00,1.0,,,,15,22,37,,,,,,,
100024661,2016-05-11 03:00,1.0,,,,7,10,17,,,,,,,
100024661,2016-05-11 04:00,1.0,,,,8,12,20,,,,,,,
100024661,2016-05-11 05:00,1.0,,,,22,49,71,,,,,,,
100024661,2016-05-11 06:00,1.0,,,,68,116,184,,,,,,,
100024661,2016-05-11 07:00,1.0,,,,254,395,649,,,,,,,
100024661,2016-05-11 08:00,1.0,,,,579,941,1520,,,,,,,
100024661,2016-05-11 09:00,1.0,,,,595,805,1400,,,,,,,
100024661,2016-05-11 10:00,1.0,,,,286,318,604,,,,,,,
100024661,2016-05-11 11:00,1.0,,,,244,231,475,,,,,,,
100024661,2016-05-11 12:00,1.0,,,,254,262,516,,,,,,,
100024661,2016-05-11 13:00,1.0,,,,264,276,540,,,,,,,
100024661,2016-05-11 14:00,1.0,,,,345,293,638,,,,,,,
100024661,2016-05-11 15:00,1.0,,,,453,372,825,,,,,,,
100024661,2016-05-11 16:00,1.0,,,,530,421,951,,,,,,,
100024661,2016-05-11 17:00,1.0,,,,662,505,1167,,,,,,,
100024661,2016-05-11 18:00,1.0,,,,900,710,1610,,,,,,,
100024661,2016-05-11 19:00,1.0,,,,588,565,1153,,,,,,,
100024661,2016-05-11 20:00,1.0,,,,355,364,719,,,,,,,
100024661,2016-05-11 21:00,1.0,,,,236,254,490,,,,,,,
100024661,2016-05-11 22:00,1.0,,,,232,224,456,,,,,,,
100024661,2016-05-11 23:00,1.0,,,,172,195,367,,,,,,,
100024661,2016-05-12 00:00,1.0,,,,93,105,198,,,,,,,
100024661,2016-05-12 01:00,1.0,,,,43,42,85,,,,,,,
100024661,2016-05-12 02:00,1.0,,,,22,30,52,,,,,,,
100024661,2016-05-12 03:00,1.0,,,,8,22,30,,,,,,,
100024661,2016-05-12 04:00,1.0,,,,15,11,26,,,,,,,
100024661,2016-05-12 05:00,1.0,,,,20,44,64,,,,,,,
100024661,2016-05-12 06:00,1.0,,,,60,112,172,,,,,,,
100024661,2016-05-12 07:00,1.0,,,,224,392,616,,,,,,,
100024661,2016-05-12 08:00,1.0,,,,511,834,1345,,,,,,,
100024661,2016-05-12 09:00,1.0,,,,579,747,1326,,,,,,,
100024661,2016-05-12 10:00,1.0,,,,379,300,679,,,,,,,
100024661,2016-05-12 11:00,1.0,,,,278,260,538,,,,,,,
100024661,2016-05-12 12:00,1.0,,,,246,269,515,,,,,,,
100024661,2016-05-12 13:00,1.0,,,,293,298,591,,,,,,,
100024661,2016-05-12 14:00,1.0,,,,317,301,618,,,,,,,
100024661,2016-05-12 15:00,1.0,,,,426,340,766,,,,,,,
100024661,2016-05-12 16:00,1.0,,,,476,390,866,,,,,,,
100024661,2016-05-12 17:00,1.0,,,,598,409,1007,,,,,,,
100024661,2016-05-12 18:00,1.0,,,,729,586,1315,,,,,,,
100024661,2016-05-12 19:00,1.0,,,,487,519,1006,,,,,,,
100024661,2016-05-12 20:00,1.0,,,,309,326,635,,,,,,,
100024661,2016-05-12 21:00,1.0,,,,233,212,445,,,,,,,
100024661,2016-05-12 22:00,1.0,,,,183,175,358,,,,,,,
100024661,2016-05-12 23:00,1.0,,,,119,142,261,,,,,,,
100024661,2016-05-13 00:00,1.0,,,,77,127,204,,,,,,,
100024661,2016-05-13 01:00,1.0,,,,53,40,93,,,,,,,
100024661,2016-05-13 02:00,1.0,,,,25,27,52,,,,,,,
100024661,2016-05-13 03:00,1.0,,,,10,11,21,,,,,,,
100024661,2016-05-13 04:00,1.0,,,,13,10,23,,,,,,,
100024661,2016-05-13 05:00,1.0,,,,14,40,54,,,,,,,
100024661,2016-05-13 06:00,1.0,,,,46,97,143,,,,,,,
100024661,2016-05-13 07:00,1.0,,,,184,281,465,,,,,,,
100024661,2016-05-13 08:00,1.0,,,,383,686,1069,,,,,,,
100024661,2016-05-13 09:00,1.0,,,,462,575,1037,,,,,,,
100024661,2016-05-13 10:00,1.0,,,,246,273,519,,,,,,,
100024661,2016-05-13 11:00,1.0,,,,245,213,458,,,,,,,
100024661,2016-05-13 12:00,1.0,,,,288,258,546,,,,,,,
100024661,2016-05-13 13:00,1.0,,,,255,301,556,,,,,,,
100024661,2016-05-13 14:00,1.0,,,,355,359,714,,,,,,,
100024661,2016-05-13 15:00,1.0,,,,437,363,800,,,,,,,
100024661,2016-05-13 16:00,1.0,,,,514,387,901,,,,,,,
100024661,2016-05-13 17:00,1.0,,,,519,439,958,,,,,,,
100024661,2016-05-13 18:00,1.0,,,,558,535,1093,,,,,,,
100024661,2016-05-13 19:00,1.0,,,,423,445,868,,,,,,,
100024661,2016-05-13 20:00,1.0,,,,315,302,617,,,,,,,
100024661,2016-05-13 21:00,1.0,,,,232,271,503,,,,,,,
100024661,2016-05-13 22:00,1.0,,,,153,170,323,,,,,,,
100024661,2016-05-13 23:00,1.0,,,,177,161,338,,,,,,,
100024661,2016-05-14 00:00,1.0,,,,127,139,266,,,,,,,
100024661,2016-05-14 01:00,1.0,,,,94,89,183,,,,,,,
100024661,2016-05-14 02:00,1.0,,,,57,51,108,,,,,,,
100024661,2016-05-14 03:00,1.0,,,,36,24,60,,,,,,,
100024661,2016-05-14 04:00,1.0,,,,38,22,60,,,,,,,
100024661,2016-05-14 05:00,1.0,,,,26,15,41,,,,,,,
100024661,2016-05-14 06:00,1.0,,,,23,19,42,,,,,,,
100024661,2016-05-14 07:00,1.0,,,,44,23,67,,,,,,,
100024661,2016-05-14 08:00,1.0,,,,47,31,78,,,,,,,
100024661,2016-05-14 09:00,1.0,,,,90,72,162,,,,,,,
100024661,2016-05-14 10:00,1.0,,,,144,108,252,,,,,,,
100024661,2016-05-14 11:00,1.0,,,,164,130,294,,,,,,,
100024661,2016-05-14 12:00,1.0,,,,165,149,314,,,,,,,
100024661,2016-05-14 13:00,1.0,,,,207,196,403,,,,,,,
100024661,2016-05-14 14:00,1.0,,,,211,292,503,,,,,,,
100024661,2016-05-14 15:00,1.0,,,,194,297,491,,,,,,,
100024661,2016-05-14 16:00,1.0,,,,217,270,487,,,,,,,
100024661,2016-05-14 17:00,1.0,,,,185,288,473,,,,,,,
100024661,2016-05-14 18:00,1.0,,,,234,271,505,,,,,,,
100024661,2016-05-14 19:00,1.0,,,,172,250,422,,,,,,,
100024661,2016-05-14 20:00,1.0,,,,132,207,339,,,,,,,
100024661,2016-05-14 21:00,1.0,,,,76,105,181,,,,,,,
100024661,2016-05-14 22:00,1.0,,,,101,98,199,,,,,,,
100024661,2016-05-14 23:00,1.0,,,,104,58,162,,,,,,,
100024661,2016-05-15 00:00,1.0,,,,65,93,158,,,,,,,
100024661,2016-05-15 01:00,1.0,,,,63,53,116,,,,,,,
100024661,2016-05-15 02:00,1.0,,,,36,28,64,,,,,,,
100024661,2016-05-15 03:00,1.0,,,,34,12,46,,,,,,,
100024661,2016-05-15 04:00,1.0,,,,22,11,33,,,,,,,
100024661,2016-05-15 05:00,1.0,,,,19,12,31,,,,,,,
100024661,2016-05-15 06:00,1.0,,,,6,12,18,,,,,,,
100024661,2016-05-15 07:00,1.0,,,,11,11,22,,,,,,,
100024661,2016-05-15 08:00,1.0,,,,25,21,46,,,,,,,
100024661,2016-05-15 09:00,1.0,,,,36,36,72,,,,,,,
100024661,2016-05-15 10:00,1.0,,,,63,76,139,,,,,,,
100024661,2016-05-15 11:00,1.0,,,,61,57,118,,,,,,,
100024661,2016-05-15 12:00,1.0,,,,61,93,154,,,,,,,
100024661,2016-05-15 13:00,1.0,,,,76,149,225,,,,,,,
100024661,2016-05-15 14:00,1.0,,,,97,228,325,,,,,,,
100024661,2016-05-15 15:00,1.0,,,,104,169,273,,,,,,,
100024661,2016-05-15 16:00,1.0,,,,97,134,231,,,,,,,
100024661,2016-05-15 17:00,1.0,,,,113,145,258,,,,,,,
100024661,2016-05-15 18:00,1.0,,,,166,109,275,,,,,,,
100024661,2016-05-15 19:00,1.0,,,,151,91,242,,,,,,,
100024661,2016-05-15 20:00,1.0,,,,143,70,213,,,,,,,
100024661,2016-05-15 21:00,1.0,,,,77,57,134,,,,,,,
100024661,2016-05-15 22:00,1.0,,,,104,77,181,,,,,,,
100024661,2016-05-15 23:00,1.0,,,,69,44,113,,,,,,,
100024661,2016-05-16 00:00,1.0,,,,42,35,77,,,,,,,
100024661,2016-05-16 01:00,1.0,,,,38,41,79,,,,,,,
100024661,2016-05-16 02:00,1.0,,,,21,23,44,,,,,,,
100024661,2016-05-16 03:00,1.0,,,,19,8,27,,,,,,,
100024661,2016-05-16 04:00,1.0,,,,16,5,21,,,,,,,
100024661,2016-05-16 05:00,1.0,,,,8,6,14,,,,,,,
100024661,2016-05-16 06:00,1.0,,,,8,8,16,,,,,,,
100024661,2016-05-16 07:00,1.0,,,,19,11,30,,,,,,,
100024661,2016-05-16 08:00,1.0,,,,26,26,52,,,,,,,
100024661,2016-05-16 09:00,1.0,,,,50,44,94,,,,,,,
100024661,2016-05-16 10:00,1.0,,,,58,90,148,,,,,,,
100024661,2016-05-16 11:00,1.0,,,,76,84,160,,,,,,,
100024661,2016-05-16 12:00,1.0,,,,122,119,241,,,,,,,
100024661,2016-05-16 13:00,1.0,,,,129,123,252,,,,,,,
100024661,2016-05-16 14:00,1.0,,,,146,146,292,,,,,,,
100024661,2016-05-16 15:00,1.0,,,,144,154,298,,,,,,,
100024661,2016-05-16 16:00,1.0,,,,118,147,265,,,,,,,
100024661,2016-05-16 17:00,1.0,,,,176,144,320,,,,,,,
100024661,2016-05-16 18:00,1.0,,,,161,132,293,,,,,,,
100024661,2016-05-16 19:00,1.0,,,,118,102,220,,,,,,,
100024661,2016-05-16 20:00,1.0,,,,90,108,198,,,,,,,
100024661,2016-05-16 21:00,1.0,,,,72,68,140,,,,,,,
100024661,2016-05-16 22:00,1.0,,,,62,89,151,,,,,,,
100024661,2016-05-16 23:00,1.0,,,,51,49,100,,,,,,,
100024661,2016-05-17 00:00,1.0,,,,31,44,75,,,,,,,
100024661,2016-05-17 01:00,1.0,,,,12,16,28,,,,,,,
100024661,2016-05-17 02:00,1.0,,,,7,10,17,,,,,,,
100024661,2016-05-17 03:00,1.0,,,,11,3,14,,,,,,,
100024661,2016-05-17 04:00,1.0,,,,12,4,16,,,,,,,
100024661,2016-05-17 05:00,1.0,,,,22,27,49,,,,,,,
100024661,2016-05-17 06:00,1.0,,,,43,85,128,,,,,,,
100024661,2016-05-17 07:00,1.0,,,,123,199,322,,,,,,,
100024661,2016-05-17 08:00,1.0,,,,355,541,896,,,,,,,
100024661,2016-05-17 09:00,1.0,,,,418,555,973,,,,,,,
100024661,2016-05-17 10:00,1.0,,,,187,212,399,,,,,,,
100024661,2016-05-17 11:00,1.0,,,,128,121,249,,,,,,,
100024661,2016-05-17 12:00,1.0,,,,124,145,269,,,,,,,
100024661,2016-05-17 13:00,1.0,,,,163,137,300,,,,,,,
100024661,2016-05-17 14:00,1.0,,,,192,169,361,,,,,,,
100024661,2016-05-17 15:00,1.0,,,,252,213,465,,,,,,,
100024661,2016-05-17 16:00,1.0,,,,293,219,512,,,,,,,
100024661,2016-05-17 17:00,1.0,,,,358,295,653,,,,,,,
100024661,2016-05-17 18:00,1.0,,,,540,441,981,,,,,,,
100024661,2016-05-17 19:00,1.0,,,,361,340,701,,,,,,,
100024661,2016-05-17 20:00,1.0,,,,207,238,445,,,,,,,
100024661,2016-05-17 21:00,1.0,,,,111,133,244,,,,,,,
100024661,2016-05-17 22:00,1.0,,,,97,97,194,,,,,,,
100024661,2016-05-17 23:00,1.0,,,,78,69,147,,,,,,,
100024661,2016-05-18 00:00,1.0,,,,35,41,76,,,,,,,
100024661,2016-05-18 01:00,1.0,,,,24,22,46,,,,,,,
100024661,2016-05-18 02:00,1.0,,,,17,9,26,,,,,,,
100024661,2016-05-18 03:00,1.0,,,,5,4,9,,,,,,,
100024661,2016-05-18 04:00,1.0,,,,8,6,14,,,,,,,
100024661,2016-05-18 05:00,1.0,,,,19,36,55,,,,,,,
100024661,2016-05-18 06:00,1.0,,,,49,109,158,,,,,,,
100024661,2016-05-18 07:00,1.0,,,,146,284,430,,,,,,,
100024661,2016-05-18 08:00,1.0,,,,437,705,1142,,,,,,,
100024661,2016-05-18 09:00,1.0,,,,521,688,1209,,,,,,,
100024661,2016-05-18 10:00,1.0,,,,246,269,515,,,,,,,
100024661,2016-05-18 11:00,1.0,,,,213,193,406,,,,,,,
100024661,2016-05-18 12:00,1.0,,,,214,227,441,,,,,,,
100024661,2016-05-18 13:00,1.0,,,,234,258,492,,,,,,,
100024661,2016-05-18 14:00,1.0,,,,280,273,553,,,,,,,
100024661,2016-05-18 15:00,1.0,,,,367,318,685,,,,,,,
100024661,2016-05-18 16:00,1.0,,,,372,316,688,,,,,,,
100024661,2016-05-18 17:00,1.0,,,,564,438,1002,,,,,,,
100024661,2016-05-18 18:00,1.0,,,,716,604,1320,,,,,,,
100024661,2016-05-18 19:00,1.0,,,,495,485,980,,,,,,,
100024661,2016-05-18 20:00,1.0,,,,273,335,608,,,,,,,
100024661,2016-05-18 21:00,1.0,,,,175,200,375,,,,,,,
100024661,2016-05-18 22:00,1.0,,,,179,179,358,,,,,,,
100024661,2016-05-18 23:00,1.0,,,,110,148,258,,,,,,,
100024661,2016-05-19 00:00,1.0,,,,80,82,162,,,,,,,
100024661,2016-05-19 01:00,1.0,,,,40,46,86,,,,,,,
100024661,2016-05-19 02:00,1.0,,,,21,17,38,,,,,,,
100024661,2016-05-19 03:00,1.0,,,,14,10,24,,,,,,,
100024661,2016-05-19 04:00,1.0,,,,7,12,19,,,,,,,
100024661,2016-05-19 05:00,1.0,,,,19,39,58,,,,,,,
100024661,2016-05-19 06:00,1.0,,,,55,119,174,,,,,,,
100024661,2016-05-19 07:00,1.0,,,,207,318,525,,,,,,,
100024661,2016-05-19 08:00,1.0,,,,466,779,1245,,,,,,,
100024661,2016-05-19 09:00,1.0,,,,511,721,1232,,,,,,,
100024661,2016-05-19 10:00,1.0,,,,265,252,517,,,,,,,
100024661,2016-05-19 11:00,1.0,,,,211,233,444,,,,,,,
100024661,2016-05-19 12:00,1.0,,,,226,229,455,,,,,,,
100024661,2016-05-19 13:00,1.0,,,,250,263,513,,,,,,,
100024661,2016-05-19 14:00,1.0,,,,298,292,590,,,,,,,
100024661,2016-05-19 15:00,1.0,,,,389,333,722,,,,,,,